Weather in Qibray

Uzbekistan     41°23′14″N   69°27′46″E
temp.,
°C
wind,
m/s
gust,
m/s
humid.,
%
clouds,
%
prec.,
mm/h
press.,
hPa
HPBL,
m
18 august, thu
thu1823:00+23e11200 0.0 100513
02:00+22ese22220 0.0 100514
05:00+18se46270 0.0 1007109
08:00+23sse57180 0.0 1007359
11:00+30ssw45120 0.0 1006976
14:00+33wsw3380 0.0 10041583
17:00+33wnw3270 0.0 10021879
20:00+25wnw11130 0.0 100311
19 august, fri
fri1923:00+22e33150 0.0 100417
02:00+21ene22160 0.0 100415
05:00+19ese22190 0.0 100511
08:00+23ssw33160 0.0 1006267
11:00+29wsw32120 0.0 1006978
14:00+33wnw3380 0.0 10041835
17:00+33nnw8680 0.0 10021766
20:00+26n813160 0.0 1003354
20 august, sat
sat2023:00+21n47240 0.0 1005113
02:00+18n34280 0.0 100660
05:00+16ese22320 0.0 100812
08:00+20s22250 0.0 1010305
11:00+26wnw22180 0.0 10091526
14:00+29nw54150 0.0 10072480
17:00+29nw65130 0.0 10062310
20:00+22nnw510210 0.0 1006196
21 august, sun
sun2123:00+18ene22280 0.0 100812
02:00+17ese22280 0.0 100812
05:00+14se34350 0.0 100981
08:00+18s57290 0.0 1010447
11:00+24ssw55200 0.0 10091065
14:00+28sw32130 0.0 10071841
17:00+29wnw33110 0.0 10072286
20:00+21n610210 0.0 1008207
22 august, mon
mon2223:00+17nne22270 0.0 101017
02:00+15ese22290 0.0 101121
05:00+12se36360 0.0 1013125
08:00+18sse46260 0.0 1014373
11:00+24ssw33150 0.0 10131159
14:00+29wnw3490 0.0 10112089
17:00+30nw3380 0.0 10092187
20:00+21ne23210 0.0 101018